Theta_e
311 319 330 333 338 341 343 345 344 344 344 344 343 342 342 341 344 345 345 346 345 345 345 344 343 343 343 343 342 343 343 342 342 342 342 342 340 340 338 338 339 336 338
311 321 326 330 332 334 336 339 342 343 343 343 344 344 343 342 341 344 345 344 345 346 346 345 344 342 342 341 340 341 340 338 338 340 339 340 339 338 336 337 338 338 339
315 318 322 328 330 330 330 331 334 338 342 344 343 343 344 343 343 342 343 343 343 344 344 343 341 339 338 339 340 339 337 336 335 334 333 336 336 336 338 338 339 339 338
312 313 321 325 326 326 327 328 329 330 333 337 341 342 343 343 342 342 342 342 341 341 341 340 339 339 336 337 338 336 334 333 332 331 331 335 335 338 337 338 340 340 340
310 311 316 321 322 323 324 324 325 326 327 331 334 336 340 341 342 342 341 342 342 341 341 338 337 339 337 336 334 333 333 331 330 328 331 333 336 336 338 338 337 337 338
308 308 312 318 319 320 320 321 321 322 324 325 327 331 333 336 339 340 341 340 341 342 341 338 338 338 338 336 333 332 331 330 326 326 328 330 333 334 337 337 335 335 337
306 307 309 313 315 316 317 318 319 320 321 322 323 325 328 331 332 336 339 340 340 340 341 340 340 339 337 335 333 330 330 330 323 323 324 328 333 335 338 335 334 334 335
304 306 306 308 311 312 313 314 315 316 317 318 320 321 322 324 327 330 334 338 339 338 339 339 339 338 336 335 332 330 330 326 321 323 324 327 332 336 336 335 334 334 335
304 305 305 305 306 307 310 312 313 314 315 315 316 317 317 319 322 325 329 332 338 338 339 338 337 337 336 335 332 331 328 324 322 323 329 331 334 336 336 337 336 335 335
303 303 303 304 305 305 306 309 310 312 312 313 313 313 313 314 317 323 324 327 332 338 338 336 336 335 335 333 331 329 325 322 321 322 327 329 334 335 336 336 336 336 335
302 302 303 303 304 304 305 306 308 308 309 310 310 310 310 312 314 316 322 324 331 335 335 334 335 333 332 330 329 326 322 321 321 321 325 326 333 335 336 335 336 334 334
300 302 303 302 303 303 303 305 306 306 307 307 307 308 309 310 311 312 315 320 323 329 332 333 334 331 327 328 327 324 321 319 319 321 323 326 332 335 335 335 334 335 335
300 300 301 302 302 302 302 303 305 305 306 306 306 307 308 309 310 312 316 322 327 322 330 331 330 326 325 326 324 322 320 318 318 321 321 325 331 333 334 334 335 335 334
299 300 300 301 301 301 302 302 303 303 304 305 306 306 307 308 308 309 312 318 322 329 328 328 326 324 324 324 323 320 319 317 318 319 322 324 331 332 333 334 334 333 333
298 299 299 300 300 301 301 302 302 303 303 304 305 306 307 307 307 308 311 315 319 327 327 325 323 321 321 320 320 319 317 317 318 321 326 321 329 331 332 333 333 333 333
298 297 298 299 300 301 301 301 302 303 304 304 305 305 307 307 307 307 308 311 314 325 327 325 321 319 318 318 318 318 316 317 321 324 328 326 324 329 331 331 331 333 333
297 296 296 299 301 300 300 301 302 304 305 306 306 307 307 307 307 307 307 310 315 325 325 322 320 318 315 316 316 315 317 321 323 324 325 325 323 321 327 331 331 331 331
294 294 296 299 299 300 300 301 303 304 306 306 306 307 307 307 307 307 307 310 314 322 322 321 318 316 313 315 313 318 320 319 318 319 320 319 318 318 319 322 328 328 329
293 294 296 298 298 299 300 302 304 305 305 306 306 306 307 307 307 307 308 311 312 321 321 320 318 315 312 315 315 315 316 316 315 315 314 313 313 313 314 313 315 320 326
293 295 296 297 298 299 300 303 304 304 305 307 306 307 306 307 307 307 308 310 311 319 321 320 317 315 315 315 312 310 311 312 312 311 309 309 308 308 309 309 310 313 318
293 294 295 296 298 299 300 300 301 301 304 305 307 307 307 307 307 308 307 309 311 315 320 320 317 314 312 312 308 306 306 308 308 308 307 306 304 303 304 305 305 306 307
292 293 295 296 297 299 300 301 301 302 303 305 307 308 307 307 308 308 307 308 311 311 319 318 316 312 311 313 308 306 301 302 304 305 304 301 300 301 300 300 301 301 303
292 293 295 296 298 299 300 301 302 304 306 307 308 307 307 308 309 308 307 309 310 315 318 317 314 312 310 311 312 309 302 298 299 301 299 299 298 298 298 298 298 299 300
292 293 295 296 298 300 300 300 300 300 301 305 311 310 308 309 310 309 311 312 320 319 317 317 316 314 313 308 312 313 311 305 299 295 296 296 296 295 295 295 295 296 298
292 294 294 296 298 299 299 300 300 300 303 307 308 312 309 309 312 313 313 317 316 317 317 317 316 314 314 311 310 308 307 305 305 298 292 291 294 294 293 293 294 294 293
292 294 295 295 296 298 298 299 299 299 301 303 303 306 311 315 315 318 319 318 317 318 318 317 317 316 314 312 311 308 306 304 302 300 294 292 290 290 291 291 292 292 291
Wind_Speed
5 9 14 15 14 14 14 13 8 8 7 7 7 7 6 6 6 7 8 12 12 12 13 14 15 13 14 12 9 11 13 11 8 8 10 12 11 11 10 11 10 10 10
6 7 12 13 15 16 15 15 15 12 10 9 9 9 8 8 8 8 8 9 12 15 15 15 15 14 14 13 10 11 12 12 12 9 8 11 10 9 10 10 9 10 10
3 7 10 14 15 15 16 16 15 15 15 13 11 11 11 11 11 11 11 10 11 13 13 14 13 14 13 13 12 12 11 11 11 9 8 8 8 9 9 7 8 10 9
6 7 9 13 15 15 15 15 15 15 15 15 17 14 14 13 13 13 14 14 13 14 13 13 13 15 15 14 13 12 12 12 10 8 7 7 8 10 9 6 10 11 9
6 6 8 13 14 15 15 15 14 14 14 14 15 15 16 15 16 16 16 15 15 16 15 13 14 12 16 15 15 10 11 12 8 7 6 6 6 8 9 8 9 9 7
5 7 9 12 14 14 14 14 14 14 14 14 14 13 13 14 12 17 18 18 17 16 17 16 14 14 14 13 13 12 11 11 7 6 6 6 6 8 10 9 9 8 6
5 6 7 12 12 13 13 14 15 14 15 15 15 15 13 14 14 13 15 18 19 18 17 16 17 16 14 14 13 11 11 9 6 5 5 6 6 5 11 9 8 8 7
4 5 5 8 11 12 13 13 14 13 15 15 15 15 15 14 14 15 16 14 19 20 20 17 17 16 15 18 14 12 9 8 5 5 6 6 7 9 11 9 8 8 7
4 4 4 4 7 10 13 13 13 13 15 15 15 15 15 15 15 15 15 16 17 20 20 17 15 16 17 18 15 13 8 7 4 3 5 4 10 10 9 11 10 9 8
1 2 3 5 6 7 8 12 12 14 15 16 15 14 14 15 15 14 12 13 16 19 20 18 17 17 18 18 16 13 9 7 5 4 3 3 5 7 9 11 11 10 9
2 3 4 5 6 7 8 8 11 13 15 16 13 12 12 8 10 10 9 13 14 16 19 18 20 19 19 17 16 13 10 3 4 3 3 3 5 9 10 10 11 9 8
4 5 3 5 6 7 7 8 9 10 8 8 9 10 8 8 8 10 11 13 15 16 20 18 21 19 15 9 8 11 5 5 3 3 3 5 6 11 12 9 9 8 8
4 4 5 6 6 8 8 6 4 4 5 6 9 8 8 7 6 6 5 5 6 9 6 12 13 6 6 8 8 7 7 6 3 3 2 2 4 8 12 12 10 11 11
5 6 6 7 8 9 6 7 8 6 5 6 7 9 6 5 6 6 5 6 5 4 8 9 6 8 10 11 11 8 8 6 4 2 2 5 3 7 11 11 11 11 11
5 5 7 7 8 8 9 8 8 7 7 8 7 8 6 6 6 6 6 6 4 6 9 9 10 7 6 9 7 8 7 7 6 4 3 9 10 8 11 11 10 11 13
4 6 7 8 8 8 9 11 8 7 8 7 7 7 8 6 6 6 6 7 5 7 8 10 11 9 7 8 8 7 7 7 5 6 6 8 14 10 11 12 11 14 18
3 5 7 9 9 10 11 10 8 8 8 7 7 9 8 6 7 7 6 7 6 8 13 12 11 7 8 7 9 7 7 8 7 9 9 9 11 20 16 15 14 16 18
3 5 8 8 11 11 11 9 8 8 8 8 6 6 8 7 7 6 6 6 5 6 13 11 11 9 9 8 8 7 7 8 10 11 10 8 8 8 15 23 17 15 18
3 5 8 10 11 13 11 9 9 11 8 7 6 5 7 7 7 6 5 4 5 6 11 12 11 10 11 10 10 9 8 8 9 10 12 12 11 10 7 21 23 18 14
3 5 7 8 10 11 9 8 8 8 7 5 5 6 6 5 7 5 4 3 4 4 10 11 13 9 12 12 11 10 8 8 8 8 10 9 10 11 11 12 11 12 20
2 6 7 9 10 8 6 7 5 7 8 6 5 7 5 6 6 5 4 2 2 3 12 12 13 14 10 14 11 10 10 10 10 8 8 8 11 10 11 10 7 7 8
4 5 8 9 9 8 6 6 4 7 5 7 5 4 4 6 5 4 4 3 5 1 13 13 14 9 8 9 8 8 4 5 9 9 8 9 10 9 10 10 10 9 8
4 6 8 9 9 8 9 7 6 6 4 3 3 1 4 6 4 5 4 4 5 8 10 12 13 17 10 7 12 5 6 5 4 8 9 9 10 8 8 9 9 9 9
3 5 7 8 8 7 10 8 8 5 4 4 5 1 2 4 4 6 6 7 9 10 11 13 11 15 12 13 3 5 5 9 5 5 6 7 8 9 9 7 7 8 8
3 4 6 7 7 8 8 8 6 7 6 6 7 4 3 3 3 4 5 7 10 9 8 10 13 13 9 12 5 4 9 7 6 5 5 4 7 6 6 6 7 7 7
2 4 5 7 6 7 7 8 8 8 8 7 8 8 4 3 2 4 7 8 9 10 10 10 10 12 10 9 8 8 9 5 9 7 5 6 7 5 5 5 6 5 6
Wind_Direction
348 340 2 12 16 17 16 8 347 343 325 298 259 245 226 213 213 200 179 166 162 170 168 170 172 174 169 170 173 124 107 104 118 146 141 117 108 113 107 105 106 110 111
294 347 4 10 20 21 19 11 7 348 322 307 281 260 248 236 215 217 205 184 171 175 176 171 165 157 145 147 135 130 118 108 101 96 102 105 110 116 117 116 117 118 122
17 9 6 12 18 19 17 13 7 357 354 326 299 274 252 235 226 212 210 202 195 194 183 175 169 155 150 140 138 130 125 118 115 116 113 112 122 123 129 128 141 135 124
32 20 15 14 13 11 10 7 2 359 358 345 357 314 276 258 243 231 213 207 204 204 195 185 180 165 159 145 137 131 132 122 120 122 130 129 131 138 137 101 129 106 100
37 23 10 11 6 2 359 356 353 351 347 347 347 341 339 286 255 239 230 216 211 207 199 196 190 187 161 156 143 148 136 117 125 138 141 145 143 148 138 119 105 99 92
28 14 8 11 4 358 353 349 344 338 336 334 334 326 326 333 326 259 238 226 217 210 205 200 186 177 172 152 139 158 134 134 147 156 156 157 160 170 152 143 131 120 108
15 11 15 9 5 359 351 345 341 336 332 329 327 325 318 304 312 309 264 235 223 217 212 204 178 175 170 133 147 152 138 140 170 180 180 174 181 211 152 150 145 134 116
30 21 18 11 9 4 355 342 334 331 331 324 320 319 317 318 305 292 285 275 231 221 213 207 181 184 155 143 154 154 140 153 168 189 192 184 192 185 152 156 143 131 116
39 27 7 355 1 3 355 348 339 327 324 321 316 315 312 310 303 287 274 275 261 221 213 208 181 180 154 147 154 137 151 147 153 164 163 170 197 163 168 161 140 123 112
38 337 330 354 350 351 341 330 329 326 321 313 308 307 306 301 295 289 280 264 269 226 213 202 181 163 153 149 141 136 152 142 142 147 164 165 172 146 139 152 132 117 114
287 321 340 333 338 334 325 314 315 308 307 309 305 296 297 290 288 296 280 278 266 240 215 197 177 164 152 144 136 142 145 154 152 152 169 199 195 146 131 130 119 117 114
300 308 303 323 322 323 319 309 300 299 295 297 297 292 288 285 286 289 286 271 279 250 208 189 179 159 148 146 141 139 148 151 155 160 177 206 219 156 141 131 119 107 101
272 276 320 320 322 316 311 299 283 284 287 292 290 286 282 280 286 286 283 283 270 238 186 181 163 145 145 140 139 151 148 154 156 167 173 231 231 172 142 135 119 116 112
279 293 316 329 324 315 306 296 294 293 286 277 278 279 274 276 281 282 281 277 288 200 174 155 147 150 155 139 148 147 148 149 155 145 107 119 156 159 142 130 128 127 111
278 311 320 328 321 314 303 298 291 285 275 267 271 272 266 257 267 282 281 286 297 183 164 148 137 125 135 133 139 142 144 144 151 139 133 111 93 111 131 127 131 122 108
297 321 324 325 309 302 305 301 297 290 283 269 259 257 257 245 257 273 282 278 277 190 150 140 132 146 146 136 136 136 137 131 135 130 99 75 64 90 106 111 117 115 113
305 318 319 321 318 316 308 302 302 294 290 282 273 263 243 239 247 257 271 271 270 188 144 128 132 126 124 117 123 120 119 110 114 106 94 89 75 59 59 77 92 109 107
323 334 313 318 321 317 314 308 304 296 288 285 271 262 255 240 242 245 258 266 280 191 138 137 133 136 119 118 119 109 102 95 90 88 89 83 79 70 59 58 65 92 101
347 324 320 328 326 320 313 300 295 292 290 283 275 271 261 245 246 234 248 263 310 181 132 130 125 131 125 118 110 100 95 87 77 86 84 80 72 73 73 62 53 48 84
338 323 323 325 316 316 306 307 297 293 285 288 274 269 257 241 245 228 233 255 276 134 129 128 129 139 128 118 100 81 70 71 73 73 81 76 72 68 67 63 61 51 62
2 341 336 326 326 321 331 320 313 315 312 306 291 268 257 228 236 225 220 174 277 223 137 140 132 134 124 123 104 87 68 62 68 65 71 78 74 64 65 62 60 65 53
329 329 332 330 324 320 320 307 290 298 293 284 281 272 243 228 228 204 227 216 214 62 138 137 135 126 134 132 117 113 118 71 55 51 62 67 66 68 64 63 60 60 58
357 335 331 327 324 330 327 309 309 296 288 297 314 270 221 221 214 163 220 269 258 212 135 136 138 139 144 105 145 123 139 114 140 40 50 58 64 66 64 63 56 56 60
343 325 331 328 327 338 328 324 346 322 325 326 341 81 160 199 148 163 199 232 134 129 139 149 150 143 143 143 119 92 95 139 125 134 49 54 57 58 58 57 59 55 62
345 350 333 328 338 341 341 337 351 353 341 340 356 37 107 137 153 177 171 137 110 113 121 137 145 144 147 152 125 117 119 93 110 122 121 112 72 57 58 58 72 70 52
336 8 340 343 338 348 360 349 7 9 359 18 19 360 6 67 115 135 114 104 108 123 134 145 142 156 152 150 119 129 143 155 153 137 117 126 117 63 65 66 72 74 67